Regional Weather Roundup
Issued by NWS

Home | Current Version | Previous Version | Text Only | Print | Product List | Glossary On
Versions: 1 2 3 4 5 6 7 8 9 10 11 12 13 14 15 16 17 18 19 20 21 22 23 24 25 26 27 28 29 30 31 32 33 34 35 36 37 38 39 40 41 42 43 44 45 46 47 48 49 50
000
ASUS43 KTOP 240408
RWRKS

WEATHER ROUNDUP FOR KANSAS
NATIONAL WEATHER SERVICE GOODLAND KS
1100 PM CDT SAT JUL 23 2016

NOTE:  "FAIR" INDICATES FEW OR NO CLOUDS BELOW 12,000 FEET WITH NO
SIGNIFICANT WEATHER AND/OR OBSTRUCTIONS TO VISIBILITY.

KSZ001>006-013>018-027>032-041>047-240500-
NORTHWEST KANSAS

CITY           SKY/WX    TMP DP  RH WIND       PRES   REMARKS
GOODLAND       CLEAR     72  59  63 CALM      29.98R
HAYS           CLOUDY    88  59  37 S10       29.85R
HILL CITY      PTCLDY    82  70  66 E7        29.87R
RUSSELL        CLOUDY    85  63  47 S12       29.83R
$$

KSZ061>065-074>080-084>089-240500-
SOUTHWEST KANSAS

CITY           SKY/WX    TMP DP  RH WIND       PRES   REMARKS
DODGE CITY     CLOUDY    84  59  42 S14       29.89R
ELKHART          N/A    N/A N/A N/A MISG        N/A
GARDEN CITY    CLOUDY    82  63  52 SE7       29.90S
GREAT BEND     CLEAR     84  61  45 S9        29.86R
LIBERAL        PTCLDY    84  54  34 S13       29.91R
PRATT          PTCLDY    86  58  37 S14       29.89R
$$

KSZ066>073-081>083-090>101-240500-
SOUTHEAST KANSAS

CITY           SKY/WX    TMP DP  RH WIND       PRES   REMARKS
CHANUTE        MOCLDY    83  71  67 S8        29.90R
COFFEYVILLE    CLEAR     85  71  63 S6        29.89S
HUTCHINSON     CLOUDY    87  66  49 SE13      29.87R
MEDICINE LODGE   N/A     90  59  35 S10       29.87R
NEWTON         MOCLDY    87  68  52 S14       29.90R
PARSONS        CLEAR     85  70  60 S5        29.90S
WICHITA INTL   CLOUDY    89  68  49 S14       29.88R
WICHITA JABRA  CLOUDY    88  68  51 S13       29.89R
WICHITA MCCONL CLOUDY    89  68  50 S18G25    29.89R
WINFIELD       CLOUDY    88  68  51 S13       29.90R
$$

KSZ007>012-019>026-033>040-048>060-102>105-240500-
NORTHEAST KANSAS

CITY           SKY/WX    TMP DP  RH WIND       PRES   REMARKS
CONCORDIA      CLOUDY    85  68  56 S17G25    29.81R
EMPORIA        CLOUDY    84  71  65 S10       29.89R
LAWRENCE       CLOUDY    80  73  79 SE7       29.86S
MANHATTAN      CLOUDY    90  69  50 S16G25    29.82S
MARYSVILLE     CLOUDY    86  72  62 S12G18    29.82S
OLATHE IND     PTCLDY    84  72  67 S9        29.89R
OLATHE EXE     PTCLDY    83  71  67 S8        29.89S
SALINA         CLEAR     88  68  51 S13       29.83R
TOPEKA BILLARD CLEAR     87  70  56 S9        29.85S
TOPEKA FORBES  CLEAR     85  71  63 S9        29.87R
$$



USA.gov is the U.S. government's official web portal to all federal, state and local government web resources and services.